Location: ????? ???????
(25.7275°N, 32.5929°E)
Time: 10:54:01
(UTC+00:00)

Delta 128 - Pass Details

Date: 02 March 2021
Orbit: 609 x 1216 km, 28.0° (Epoch: 15 April)

Event Time Altitude Azimuth Distance (km) Brightness Sun altitude
Rises 16:25:51 0° 273° (W) 3,874 10.0 -8.4°
Reaches altitude 10° 16:28:48 10° 275° (W) 2,831 8.5 -9.1°
Maximum altitude 16:35:39 71° 359° (N) 960 4.5 -10.6°
Enters shadow 16:40:29 15° 82° (E) 2,064 5.6 -11.7°
